TimeCST,TemperatureF,Dew PointF,Humidity,Sea Level PressureIn,VisibilityMPH,Wind Direction,Wind SpeedMPH,Gust SpeedMPH,PrecipitationIn,Events,Conditions,WindDirDegrees,DateUTC
12:15 AM,14.0,6.8,73,30.19,10.0,SW,6.9,-,N/A,,Clear,220,2012-11-27 06:15:00
12:35 AM,14.0,6.8,73,30.18,10.0,SW,8.1,-,N/A,,Clear,220,2012-11-27 06:35:00
12:52 AM,14.0,6.8,73,30.18,10.0,SW,8.1,-,N/A,,Clear,220,2012-11-27 06:52:00
1:15 AM,15.8,6.8,68,30.17,10.0,SW,6.9,-,N/A,,Clear,230,2012-11-27 07:15:00
1:34 AM,15.8,8.6,73,30.16,10.0,SW,6.9,-,N/A,,Clear,230,2012-11-27 07:34:00
1:53 AM,15.8,8.6,73,30.16,10.0,WSW,8.1,-,N/A,,Clear,240,2012-11-27 07:53:00
2:15 AM,17.6,8.6,68,30.15,10.0,SW,6.9,-,N/A,,Clear,220,2012-11-27 08:15:00
2:35 AM,17.6,8.6,68,30.15,10.0,SW,6.9,-,N/A,,Clear,230,2012-11-27 08:35:00
2:53 AM,17.6,10.4,73,30.15,10.0,SW,6.9,-,N/A,,Clear,230,2012-11-27 08:53:00
3:15 AM,15.8,8.6,73,30.14,10.0,South,4.6,-,N/A,,Clear,190,2012-11-27 09:15:00
3:34 AM,14.0,8.6,79,30.13,10.0,South,4.6,-,N/A,,Clear,190,2012-11-27 09:34:00
3:53 AM,12.2,8.6,85,30.12,10.0,SSW,4.6,-,N/A,,Clear,200,2012-11-27 09:53:00
4:15 AM,14.0,8.6,79,30.11,10.0,SSW,6.9,-,N/A,,Clear,200,2012-11-27 10:15:00
4:34 AM,15.8,10.4,79,30.10,10.0,SSW,6.9,-,N/A,,Mostly Cloudy,200,2012-11-27 10:34:00
4:53 AM,15.8,10.4,79,30.09,10.0,SSW,6.9,-,N/A,,Overcast,200,2012-11-27 10:53:00
5:15 AM,17.6,10.4,73,30.08,10.0,SSW,9.2,-,N/A,,Overcast,200,2012-11-27 11:15:00
5:35 AM,17.6,12.2,79,30.08,10.0,SSW,6.9,-,N/A,,Overcast,210,2012-11-27 11:35:00
6:14 AM,17.6,12.2,79,30.08,10.0,SW,3.5,-,N/A,,Overcast,220,2012-11-27 12:14:00
6:35 AM,17.6,12.2,79,30.08,10.0,SW,3.5,-,N/A,,Overcast,220,2012-11-27 12:35:00
6:52 AM,17.6,12.2,79,30.08,10.0,Calm,Calm,-,N/A,,Overcast,0,2012-11-27 12:52:00
7:15 AM,17.6,12.2,79,30.08,10.0,South,3.5,-,N/A,,Overcast,190,2012-11-27 13:15:00
7:35 AM,17.6,12.2,79,30.08,10.0,South,4.6,-,N/A,,Overcast,190,2012-11-27 13:35:00
7:52 AM,17.6,12.2,79,30.07,10.0,South,4.6,-,N/A,,Overcast,190,2012-11-27 13:52:00
8:15 AM,15.8,10.4,79,30.07,10.0,SSW,3.5,-,N/A,,Scattered Clouds,200,2012-11-27 14:15:00
8:35 AM,15.8,12.2,86,30.07,10.0,Calm,Calm,-,N/A,,Mostly Cloudy,0,2012-11-27 14:35:00
8:52 AM,17.6,12.2,79,30.07,10.0,Calm,Calm,-,N/A,,Overcast,0,2012-11-27 14:52:00
9:15 AM,15.8,12.2,86,30.07,10.0,Calm,Calm,-,N/A,,Scattered Clouds,0,2012-11-27 15:15:00
9:35 AM,19.4,15.8,86,30.07,10.0,SW,3.5,-,N/A,,Clear,230,2012-11-27 15:35:00
9:53 AM,21.2,15.8,80,30.06,10.0,WSW,8.1,-,N/A,,Clear,250,2012-11-27 15:53:00
10:15 AM,24.8,17.6,74,30.07,10.0,West,6.9,-,N/A,,Clear,260,2012-11-27 16:15:00
10:35 AM,24.8,17.6,74,30.07,10.0,West,10.4,-,N/A,,Clear,280,2012-11-27 16:35:00
10:53 AM,24.8,17.6,74,30.07,10.0,West,6.9,-,N/A,,Clear,280,2012-11-27 16:53:00
11:14 AM,24.8,17.6,74,30.07,10.0,NW,8.1,-,N/A,,Clear,310,2012-11-27 17:14:00
11:35 AM,24.8,17.6,74,30.06,10.0,WNW,9.2,-,N/A,,Clear,300,2012-11-27 17:35:00
11:53 AM,26.6,17.6,69,30.06,10.0,WNW,5.8,-,N/A,,Clear,300,2012-11-27 17:53:00
12:14 PM,26.6,17.6,69,30.06,10.0,NW,8.1,-,N/A,,Clear,310,2012-11-27 18:14:00
12:35 PM,26.6,17.6,69,30.06,10.0,NW,8.1,-,N/A,,Mostly Cloudy,310,2012-11-27 18:35:00
12:53 PM,26.6,19.4,74,30.06,10.0,WNW,8.1,-,N/A,,Overcast,290,2012-11-27 18:53:00
1:14 PM,26.6,19.4,74,30.06,10.0,NW,8.1,-,N/A,,Overcast,320,2012-11-27 19:14:00
1:35 PM,26.6,19.4,74,30.07,10.0,NW,5.8,-,N/A,,Overcast,310,2012-11-27 19:35:00
1:53 PM,26.6,19.4,74,30.07,10.0,NW,6.9,-,N/A,,Overcast,310,2012-11-27 19:53:00
2:15 PM,26.6,19.4,74,30.07,10.0,NW,9.2,-,N/A,,Overcast,310,2012-11-27 20:15:00
2:35 PM,26.6,19.4,74,30.06,10.0,WNW,5.8,-,N/A,,Overcast,300,2012-11-27 20:35:00
2:53 PM,26.6,19.4,74,30.07,10.0,WNW,8.1,-,N/A,,Overcast,300,2012-11-27 20:53:00
3:14 PM,26.6,19.4,74,30.08,10.0,NW,12.7,-,N/A,,Overcast,320,2012-11-27 21:14:00
3:35 PM,24.8,19.4,80,30.09,10.0,WNW,10.4,-,N/A,,Overcast,290,2012-11-27 21:35:00
3:53 PM,24.8,19.4,80,30.10,10.0,NW,10.4,-,N/A,,Overcast,320,2012-11-27 21:53:00
4:15 PM,24.8,19.4,80,30.10,10.0,WNW,8.1,-,N/A,,Overcast,290,2012-11-27 22:15:00
4:35 PM,24.8,19.4,80,30.11,10.0,NW,9.2,-,N/A,,Overcast,320,2012-11-27 22:35:00
4:53 PM,23.0,17.6,80,30.12,10.0,NW,8.1,-,N/A,,Overcast,310,2012-11-27 22:53:00
5:15 PM,23.0,17.6,80,30.12,10.0,WNW,8.1,-,N/A,,Overcast,290,2012-11-27 23:15:00
5:53 PM,21.2,17.6,86,30.13,10.0,NW,8.1,-,N/A,,Overcast,310,2012-11-27 23:53:00
6:15 PM,21.2,17.6,86,30.14,10.0,NW,11.5,-,N/A,,Overcast,310,2012-11-28 00:15:00
6:35 PM,21.2,17.6,86,30.15,10.0,NW,9.2,-,N/A,,Overcast,320,2012-11-28 00:35:00
6:53 PM,21.2,17.6,86,30.15,10.0,WNW,9.2,-,N/A,,Overcast,290,2012-11-28 00:53:00
7:14 PM,21.2,17.6,86,30.16,10.0,NW,12.7,-,N/A,,Overcast,320,2012-11-28 01:14:00
7:35 PM,19.4,15.8,86,30.17,10.0,WNW,12.7,-,N/A,,Overcast,300,2012-11-28 01:35:00
7:53 PM,19.4,15.8,86,30.18,10.0,NW,16.1,-,N/A,,Overcast,310,2012-11-28 01:53:00
8:14 PM,19.4,15.8,86,30.18,10.0,NW,10.4,18.4,N/A,,Overcast,310,2012-11-28 02:14:00
8:35 PM,19.4,15.8,86,30.19,10.0,NW,12.7,-,N/A,,Overcast,320,2012-11-28 02:35:00
8:53 PM,19.4,15.8,86,30.19,10.0,NNW,6.9,-,N/A,,Overcast,330,2012-11-28 02:53:00
9:14 PM,21.2,17.6,86,30.19,10.0,NW,8.1,-,N/A,,Overcast,320,2012-11-28 03:14:00
9:34 PM,19.4,15.8,86,30.19,10.0,NW,12.7,17.3,N/A,,Overcast,310,2012-11-28 03:34:00
9:53 PM,19.4,15.8,86,30.20,10.0,NW,10.4,19.6,N/A,,Overcast,310,2012-11-28 03:53:00
10:15 PM,19.4,15.8,86,30.20,10.0,WNW,10.4,-,N/A,,Overcast,300,2012-11-28 04:15:00
10:53 PM,19.4,15.8,86,30.22,10.0,NW,13.8,-,N/A,,Overcast,320,2012-11-28 04:53:00
11:15 PM,17.6,14.0,86,30.23,10.0,NW,9.2,-,N/A,,Overcast,320,2012-11-28 05:15:00
11:53 PM,19.4,14.0,80,30.23,10.0,NW,6.9,-,N/A,,Overcast,310,2012-11-28 05:53:00